| time (UTC) | temp C | wind direction | speed KPH | gust KPH | rain 1hr cm | rain 24hr cm | rain mn cm | humidity % | barometer mb |
| 20260510001529 | 15 | 19 | 8.0 | 22.5 | 0.00 | 0.00 | 0.00 | 30 | 1009.2 |
| 20260510000026 | 15 | 49 | 8.0 | 20.9 | 0.00 | 0.00 | 0.00 | 29 | 1008.9 |
| 20260509234534 | 15 | 338 | 9.7 | 17.7 | 0.00 | 0.00 | 0.00 | 30 | 1008.8 |
| 20260509233021 | 15 | 355 | 12.9 | 25.7 | 0.00 | 0.00 | 0.00 | 28 | 1008.6 |
| 20260509231519 | 15 | 355 | 14.5 | 29.0 | 0.00 | 0.00 | 0.00 | 27 | 1008.4 |
| 20260509230018 | 15 | 9 | 14.5 | 32.2 | 0.00 | 0.00 | 0.00 | 26 | 1008.2 |
| 20260509224513 | 16 | 333 | 16.1 | 30.6 | 0.00 | 0.00 | 0.00 | 25 | 1008.0 |
| 20260509223016 | 16 | 328 | 17.7 | 30.6 | 0.00 | 0.00 | 0.00 | 25 | 1007.9 |
| 20260509221510 | 16 | 360 | 12.9 | 25.7 | 0.00 | 0.00 | 0.00 | 26 | 1007.6 |
| 20260509220013 | 16 | 36 | 16.1 | 27.4 | 0.00 | 0.00 | 0.00 | 27 | 1007.6 |
| 20260509214505 | 16 | 12 | 9.7 | 30.6 | 0.00 | 0.00 | 0.00 | 28 | 1007.5 |
| 20260509213005 | 16 | 355 | 14.5 | 32.2 | 0.00 | 0.00 | 0.00 | 27 | 1007.4 |
| 20260509211504 | 16 | 355 | 16.1 | 27.4 | 0.00 | 0.00 | 0.00 | 26 | 1007.4 |
| 20260509210003 | 16 | 282 | 14.5 | 29.0 | 0.00 | 0.00 | 0.00 | 27 | 1007.0 |
| 20260509204603 | 17 | 355 | 12.9 | 32.2 | 0.00 | 0.00 | 0.00 | 27 | 1007.0 |
| 20260509203058 | 16 | 13 | 16.1 | 29.0 | 0.00 | 0.00 | 0.00 | 29 | 1006.8 |
| 20260509201557 | 16 | 34 | 11.3 | 29.0 | 0.00 | 0.00 | 0.00 | 30 | 1006.7 |
| 20260509200107 | 16 | 16 | 16.1 | 32.2 | 0.00 | 0.00 | 0.00 | 30 | 1006.6 |
| 20260509194529 | 16 | 322 | 12.9 | 30.6 | 0.00 | 0.00 | 0.00 | 30 | 1006.6 |
| 20260509193025 | 16 | 355 | 11.3 | 30.6 | 0.00 | 0.00 | 0.00 | 28 | 1006.6 |
| 20260509191551 | 16 | 27 | 22.5 | 38.6 | 0.00 | 0.00 | 0.00 | 28 | 1006.3 |
| 20260509190056 | 16 | 323 | 19.3 | 30.6 | 0.00 | 0.00 | 0.00 | 31 | 1006.3 |
| 20260509184618 | 16 | 5 | 19.3 | 38.6 | 0.00 | 0.00 | 0.00 | 32 | 1006.1 |
| 20260509183044 | 16 | 5 | 17.7 | 29.0 | 0.00 | 0.00 | 0.00 | 35 | 1005.9 |
| 20260509181546 | 16 | 17 | 12.9 | 29.0 | 0.00 | 0.00 | 0.00 | 35 | 1005.6 |
| 20260509180040 | 15 | 344 | 12.9 | 35.4 | 0.00 | 0.00 | 0.00 | 36 | 1005.5 |
| 20260509174537 | 15 | 355 | 12.9 | 35.4 | 0.00 | 0.00 | 0.00 | 38 | 1005.5 |
| 20260509173035 | 15 | 15 | 16.1 | 30.6 | 0.00 | 0.00 | 0.00 | 37 | 1005.3 |
| 20260509171533 | 15 | 348 | 11.3 | 25.7 | 0.00 | 0.00 | 0.00 | 37 | 1005.3 |
| 20260509170031 | 14 | 20 | 16.1 | 25.7 | 0.00 | 0.00 | 0.00 | 40 | 1005.2 |
| 20260509164525 | 14 | 5 | 22.5 | 33.8 | 0.00 | 0.00 | 0.00 | 40 | 1005.4 |
| 20260509163027 | 14 | 340 | 17.7 | 32.2 | 0.00 | 0.00 | 0.00 | 39 | 1005.1 |
| 20260509161512 | 14 | 360 | 19.3 | 33.8 | 0.00 | 0.00 | 0.00 | 44 | 1005.0 |
| 20260509160009 | 14 | 336 | 9.7 | 25.7 | 0.00 | 0.00 | 0.00 | 50 | 1004.9 |
| 20260509154544 | 13 | 32 | 14.5 | 27.4 | 0.00 | 0.00 | 0.00 | 55 | 1004.8 |
| 20260509153040 | 12 | 321 | 12.9 | 24.1 | 0.00 | 0.00 | 0.00 | 58 | 1004.5 |
| 20260509151507 | 12 | 321 | 9.7 | 24.1 | 0.00 | 0.00 | 0.00 | 61 | 1004.3 |
| 20260509150007 | 12 | 5 | 12.9 | 22.5 | 0.00 | 0.00 | 0.00 | 60 | 1004.1 |
| 20260509144504 | 12 | 312 | 12.9 | 22.5 | 0.00 | 0.00 | 0.00 | 61 | 1003.9 |
| 20260509143006 | 12 | 5 | 14.5 | 25.7 | 0.00 | 0.00 | 0.00 | 62 | 1003.8 |
| 20260509141503 | 12 | 19 | 17.7 | 30.6 | 0.00 | 0.00 | 0.00 | 62 | 1003.5 |
| 20260509140002 | 11 | 360 | 12.9 | 22.5 | 0.00 | 0.00 | 0.00 | 67 | 1003.4 |
| 20260509134529 | 11 | 32 | 9.7 | 20.9 | 0.00 | 0.00 | 0.00 | 64 | 1003.1 |
| 20260509133027 | 11 | 12 | 14.5 | 27.4 | 0.00 | 0.00 | 0.00 | 60 | 1002.8 |
| 20260509131525 | 11 | 355 | 6.4 | 11.3 | 0.00 | 0.00 | 0.00 | 54 | 1002.5 |
| 20260509130024 | 12 | 296 | 3.2 | 9.7 | 0.00 | 0.00 | 0.00 | 51 | 1002.2 |
| 20260509124528 | 12 | 265 | 3.2 | 8.0 | 0.00 | 0.00 | 0.00 | 51 | 1002.1 |
| 20260509123032 | 12 | 302 | 0.0 | 4.8 | 0.00 | 0.00 | 0.00 | 52 | 1001.9 |
| 20260509121523 | 11 | 269 | 0.0 | 3.2 | 0.00 | 0.00 | 0.00 | 53 | 1001.7 |
| 20260509120020 | 11 | 323 | 1.6 | 3.2 | 0.00 | 0.00 | 0.00 | 50 | 1001.5 |
| 20260509114519 | 11 | 241 | 0.0 | 4.8 | 0.00 | 0.00 | 0.00 | 52 | 1001.4 |
| 20260509113019 | 11 | 311 | 3.2 | 8.0 | 0.00 | 0.00 | 0.00 | 54 | 1001.5 |
| 20260509111529 | 10 | 238 | 0.0 | 4.8 | 0.00 | 0.00 | 0.00 | 55 | 1000.8 |
| 20260509110014 | 11 | 277 | 1.6 | 4.8 | 0.00 | 0.00 | 0.00 | 52 | 1000.9 |
| 20260509104524 | 10 | 187 | 0.0 | 3.2 | 0.00 | 0.00 | 0.00 | 53 | 1001.1 |
| 20260509103012 | 10 | 360 | 3.2 | 8.0 | 0.00 | 0.00 | 0.00 | 51 | 1001.1 |
| 20260509101514 | 10 | 5 | 0.0 | 4.8 | 0.00 | 0.00 | 0.00 | 52 | 1000.9 |
| 20260509100059 | 10 | 278 | 3.2 | 14.5 | 0.00 | 0.00 | 0.00 | 59 | 1000.6 |
| 20260509094544 | 8 | 18 | 1.6 | 6.4 | 0.00 | 0.00 | 0.00 | 59 | 1000.4 |
| 20260509093006 | 8 | 211 | 0.0 | 3.2 | 0.00 | 0.00 | 0.00 | 58 | 1000.1 |
| 20260509091502 | 10 | 211 | 0.0 | 0.0 | 0.00 | 0.00 | 0.00 | 56 | 1000.2 |
| 20260509090101 | 9 | 211 | 0.0 | 1.6 | 0.00 | 0.00 | 0.00 | 54 | 1000.4 |
| 20260509084600 | 10 | 211 | 0.0 | 0.0 | 0.00 | 0.00 | 0.00 | 51 | 1000.3 |
| 20260509083059 | 10 | 211 | 0.0 | 1.6 | 0.00 | 0.00 | 0.00 | 52 | 1000.3 |
| 20260509081602 | 10 | 211 | 0.0 | 3.2 | 0.00 | 0.00 | 0.00 | 49 | 1000.0 |
| 20260509080028 | 9 | 223 | 0.0 | 4.8 | 0.00 | 0.00 | 0.00 | 52 | 1000.1 |
| 20260509074527 | 9 | 219 | 1.6 | 4.8 | 0.00 | 0.00 | 0.00 | 52 | 1000.2 |
| 20260509073023 | 10 | 252 | 0.0 | 1.6 | 0.00 | 0.00 | 0.00 | 51 | 1000.4 |
| 20260509071519 | 10 | 206 | 1.6 | 4.8 | 0.00 | 0.00 | 0.00 | 49 | 1000.4 |
| 20260509070015 | 12 | 248 | 0.0 | 1.6 | 0.00 | 0.00 | 0.00 | 41 | 1000.7 |
| 20260509064525 | 12 | 248 | 0.0 | 0.0 | 0.00 | 0.00 | 0.00 | 38 | 1000.7 |
| 20260509063010 | 13 | 271 | 0.0 | 3.2 | 0.00 | 0.00 | 0.00 | 35 | 1000.8 |
| 20260509061526 | 14 | 302 | 0.0 | 6.4 | 0.00 | 0.00 | 0.00 | 33 | 1000.8 |
| 20260509060009 | 14 | 306 | 4.8 | 12.9 | 0.00 | 0.00 | 0.00 | 32 | 1000.9 |
| 20260509054509 | 15 | 301 | 4.8 | 12.9 | 0.00 | 0.00 | 0.00 | 31 | 1001.0 |
| 20260509053018 | 15 | 284 | 8.0 | 20.9 | 0.00 | 0.00 | 0.00 | 31 | 1001.2 |
| 20260509051507 | 15 | 347 | 8.0 | 17.7 | 0.00 | 0.00 | 0.00 | 31 | 1001.1 |
| 20260509050008 | 15 | 322 | 6.4 | 19.3 | 0.00 | 0.00 | 0.00 | 33 | 1001.0 |
| 20260509044505 | 16 | 326 | 8.0 | 24.1 | 0.00 | 0.00 | 0.00 | 33 | 1000.9 |
| 20260509043034 | 15 | 315 | 3.2 | 9.7 | 0.00 | 0.00 | 0.00 | 36 | 1000.8 |
| 20260509041534 | 15 | 318 | 3.2 | 9.7 | 0.00 | 0.00 | 0.00 | 36 | 1000.6 |
| 20260509040029 | 15 | 287 | 4.8 | 9.7 | 0.00 | 0.00 | 0.00 | 37 | 1000.5 |
| 20260509034535 | 15 | 329 | 3.2 | 8.0 | 0.00 | 0.00 | 0.00 | 38 | 1000.4 |
| 20260509033028 | 13 | 317 | 1.6 | 8.0 | 0.00 | 0.00 | 0.00 | 41 | 1000.3 |
| 20260509031527 | 12 | 282 | 1.6 | 4.8 | 0.00 | 0.00 | 0.00 | 49 | 1000.2 |
| 20260509030025 | 11 | 280 | 0.0 | 4.8 | 0.00 | 0.00 | 0.00 | 57 | 1000.1 |
| 20260509024525 | 12 | 286 | 1.6 | 3.2 | 0.00 | 0.00 | 0.00 | 53 | 999.9 |
| 20260509023019 | 11 | 228 | 0.0 | 3.2 | 0.00 | 0.00 | 0.00 | 53 | 999.9 |
| 20260509021515 | 12 | 240 | 1.6 | 3.2 | 0.00 | 0.00 | 0.00 | 48 | 999.7 |
| 20260509020006 | 13 | 236 | 0.0 | 3.2 | 0.00 | 0.00 | 0.00 | 47 | 999.7 |
| 20260509014503 | 14 | 236 | 0.0 | 4.8 | 0.00 | 0.00 | 0.00 | 46 | 999.5 |
| 20260509013059 | 15 | 226 | 0.0 | 6.4 | 0.00 | 0.00 | 0.00 | 43 | 999.5 |
| 20260509011553 | 15 | 204 | 1.6 | 4.8 | 0.00 | 0.00 | 0.00 | 43 | 999.5 |
| 20260509010046 | 18 | 97 | 0.0 | 0.0 | 0.00 | 0.00 | 0.00 | 34 | 999.4 |
| 20260509004540 | 19 | 97 | 0.0 | 1.6 | 0.00 | 0.00 | 0.00 | 33 | 999.4 |
| 20260509003040 | 20 | 97 | 0.0 | 3.2 | 0.00 | 0.00 | 0.00 | 26 | 999.4 |